Location: Fernhill
(41.0167°S, 175.6333°E)
Time: 10:16:28
(UTC+00:00)

IRS-1A Rocket - Pass Details

Date: 08 November 2025
Orbit: 851 x 931 km, 98.9° (Epoch: 12 December)

Event Time Altitude Azimuth Distance (km) Brightness Sun altitude
Rises 09:51:51 0° 165° (SSE) 3,599 8.0 -25.0°
Reaches altitude 10° 09:54:20 10° 162° (SSE) 2,640 7.2 -25.2°
Maximum altitude 10:00:14 73° 77° (ENE) 953 4.2 -25.8°
Enters shadow 10:00:47 68° 35° (NE) 978 4.2 -25.9°
